Regional Weather Roundup
Issued by NWS Wilmington, NC

Home | Current Version | Previous Version | Text Only | Print | Product List | Glossary On
Versions: 1 2 3 4 5 6 7 8 9 10 11 12 13 14 15 16 17 18 19 20 21 22 23 24 25 26 27 28 29 30 31 32 33 34 35 36 37 38 39 40 41 42 43 44 45 46 47 48 49
000
ASUS42 KILM 181412
RWRILM
RWRILM
REGIONAL HOURLY WEATHER ROUNDUP
NATIONAL WEATHER SERVICE WILMINGTON NC
1000 AM EDT SAT APR 18 2015

NOTE: "FAIR" INDICATES FEW OR NO CLOUDS BELOW 12,000 FEET WITH NO
SIGNIFICANT WEATHER AND/OR OBSTRUCTIONS TO VISIBILITY.

...............WFO WILMINGTON COUNTY WARNING AREA...............

......COASTAL NC AND SC COUNTIES......

CITY           SKY/WX    TMP DP  RH WIND       PRES   REMARKS
WILMINGTON     LGT RAIN  68  66  93 NE10      30.00S
N MYRTLE BEACH LGT RAIN  67  66  97 NE6       30.00R FOG
MYRTLE BEACH   CLOUDY    70  64  83 N8        30.01S

......INLAND NC AND SC COUNTIES.......

CITY           SKY/WX    TMP DP  RH WIND       PRES   REMARKS
LUMBERTON      CLOUDY    70  65  84 CALM      30.00R
ELIZABETHTOWN  RAIN      67  67 100 E3        30.01S
WHITEVILLE     RAIN      66  65  96 NE3       30.00S
FLORENCE       CLOUDY    68  64  87 NE6       30.01S
DARLINGTON     PTSUNNY   70  63  78 CALM      30.02S

....................REST OF NORTH CAROLINA......................

.........EASTERN NC.........

CITY           SKY/WX    TMP DP  RH WIND       PRES   REMARKS
CAPE HATTERAS  LGT RAIN  66  63  90 VRB3      29.99S
JACKSONVILLE   CLOUDY    66  63  88 S5        30.01S
MOREHEAD CITY  LGT RAIN  69  67  93 CALM      30.00R
KENANSVILLE    PTSUNNY   69  65  86 CALM      30.01R
NEW BERN       CLOUDY    73  65  75 E5        30.00S
ELIZABETH CITY PTSUNNY   73  64  73 N8        29.99S

.........CENTRAL NC.........

CITY           SKY/WX    TMP DP  RH WIND       PRES   REMARKS
RALEIGH DURHAM PTSUNNY   69  63  81 NE3       30.01R
ROCKY MOUNT    PTSUNNY   70  63  78 VRB5      30.00R
ROANOKE RAPIDS NOT AVBL
FAYETTEVILLE   CLOUDY    70  64  81 CALM      30.00R
HOFFMAN        PTSUNNY   69  65  87 NW5       30.04R

.........WESTERN NC.........

CITY           SKY/WX    TMP DP  RH WIND       PRES   REMARKS
CHARLOTTE      CLOUDY    67  61  81 N6        30.03R
GREENSBORO     MOSUNNY   70  62  76 NE8       30.01S
HICKORY        NOT AVBL
BOONE          NOT AVBL
ASHEVILLE      NOT AVBL

.....................REST OF SOUTH CAROLINA.....................

.........EASTERN SC.........

CITY           SKY/WX    TMP DP  RH WIND       PRES   REMARKS
CHARLESTON     CLOUDY    71  68  90 NW3       29.99S
BEAUFORT MCAS    N/A    N/A N/A N/A MISG      29.99S
HILTON HEAD    CLOUDY    70  68  94 E3        30.01R FOG

.........CENTRAL SC.........

CITY           SKY/WX    TMP DP  RH WIND       PRES   REMARKS
COLUMBIA       CLOUDY    69  64  84 E3        30.00S
ORANGEBURG     CLOUDY    69  64  84 NE5       30.00S
SUMTER SHAW    CLOUDY    67  64  90 NE5       29.99S

.........WESTERN SC.........

CITY           SKY/WX    TMP DP  RH WIND       PRES   REMARKS
GREENVILLE     NOT AVBL
ROCK HILL      CLOUDY    68  63  84 N3        30.03R
ANDERSON       CLOUDY    66  63  90 CALM      30.01S
CLEMSON        NOT AVBL
GREENWOOD      CLOUDY    66  64  93 E5        30.02S


...................COASTAL AND OFFSHORE REPORTS..................

................LOCAL PIERS AND NC RESERVE................


STATION/POSITION TIME  SKY/WX   TEMP    WIND        PRES    VSBY
                                AIR SEA DIR/SP/G
                 (UTC)          (F)     (DEG/KT/KT) (MB)    (MI)
JOHNY MRCER PIER 1300            65 65   20/  8/  9 1015.1R
NC RESRV MASNBRO NOT AVBL
OCEAN CREST PIER 1302            67 65  350/  7/ 11 1014.3S
SPRINGMAID  PIER 1300            67 64   10/  7/ 10 1015.5R


................COASTAL AND OFFSHORE BUOYS................


STATION/POSITION TIME  SKY/WX   TEMP    WIND        PRES    VSBY
                                AIR SEA DIR/SP/G
                 (UTC)          (F)     (DEG/KT/KT) (MB)    (MI)
DIMNDSHOAL 41025 1350            70 75   30/ 10/ 12 1015.7R
WVE H/P(F/S)=  5/ 9 WND WVE H/P(F/S)=  2/ 4 SWL H/P/D(F/S/D)=  5/ 90/ 9

CAPE LOOKOUT     1400            67      40/  5/  5 1015.6R
ONSLOW BAY 41036 NOT AVBL
5 WRITEBCH 41038 NOT AVBL
MASONBORO  41110 1319               64                N/A
WVE H/P(F/S)=  3/10 WND WVE H/P(F/S)=  3/10

WILM HARBR 41108 1311               63                N/A
WVE H/P(F/S)=  2/ 9 WND WVE H/P(F/S)=  2/ 9

27WRITEBCH 41037 1300            67 73   40/ 12/ 14   N/A
FRYING PAN 41013 1350            71 73   20/ 10/ 12 1015.3R
WVE H/P(F/S)=  4/ 8 WND WVE H/P(F/S)=  2/ 5 SWL H/P/D(F/S/D)=  3/110/ 8

SUNST NRSH 41024 1308            66     350/  6/ 10   N/A
CAPRS NRSH 41029 NOT AVBL
EDISTO     41004 1350            71 75  340/  4/  6 1014.4F
WVE H/P(F/S)=  3/ 9 WND WVE H/P(F/S)=  2/ 4 SWL H/P/D(F/S/D)=  3/ 9



..........OFFSHORE BUOYS BEYOND 100 NM OFFSHORE...........
.....IN A TRIANGLE---HAT TO BERMUDA TO BAHAMAS TO HAT.....


STATION/POSITION TIME  SKY/WX   TEMP    WIND        PRES    VSBY
                                AIR SEA DIR/SP/G
                 (UTC)          (F)     (DEG/KT/KT) (MB)    (MI)
150E HAT   41001 NOT AVBL
W BERMUDA  41048 1350            73 72  230/  8/ 10 1015.4R
WVE H/P(F/S)=  6/12 WND WVE H/P(F/S)=  2/ 4 SWL H/P/D(F/S/D)=  5/12

ATLANTIC S 41049 1350            75 76  190/ 12/ 16 1019.3R
WVE H/P(F/S)=  9/14 WND WVE H/P(F/S)=  2/ 4 SWL H/P/D(F/S/D)=  8/ 40/14

E BAHAMAS  41046 1350            77 79  170/ 10/ 12 1019.0R
WVE H/P(F/S)=  6/10 WND WVE H/P(F/S)=  2/ 4 SWL H/P/D(F/S/D)=  7/ 10/10

NE BAHAMAS 41047 1350            76 77  200/ 14/ 16 1017.8R
WVE H/P(F/S)=  6/ 9 WND WVE H/P(F/S)=  2/ 6 SWL H/P/D(F/S/D)=  5/ 50/ 9

120E CANVRL41010 1320            79 78  210/  8/  8 1015.4R

END



USA.gov is the U.S. government's official web portal to all federal, state and local government web resources and services.